THOR ABLESTAR DEB, 3124

Orbit data source: Space-Track

THOR ABLESTAR DEB, 3124 is space debris in LEO originally from a launch on Thu, 29 Jun 1961 UTC launched from the Air Force Eastern Test Range (AFETR). Debris objects in space refer to the collection of defunct objects orbiting the Earth. Examples of debris include non-operational satellites, rocket bodies, and fragments generated from explosions, collisions, or faulty payload assembly.

Loading next visibility...
Identifier
3124, 1961-015HX
Orbit
LEO
Country
Flag of USUS
Related business
Manufacturer
Unknown
Mission
Spacecraft
Bus & Motor
Unknown
Mass
Unknown
Launch date (UTC)
1961-06-29 (65 years ago)
Launch vehicle
Unknown
Launch site
Air Force Eastern Test Range (AFETR)
Object type
Payload
Rocket body
Debris
Shape & HBR
Unknown shape, 0.1 m
Radar Cross Section
Small (<0.1 m²)

Expand to show TLE details & history
Last TLE update: 22 hours ago

TLE from 22 hours ago
0 THOR ABLESTAR DEB
1 03124U 61015HX  26140.55317580  .00002215  00000-0  23103-2 0  9991
2 03124  66.9878 346.0603 0311188  99.9032 263.7305 13.57809702165394
Epoch: 2026-05-20T13:16Z
TLE epoch observation values (Epoch: 2026-05-20T13:16:34.389Z)
Latitude
-0.00001°
Longitude
-91.29407°
Altitude
1,078.01 km
Speed
7.298 km/s
True Right ascension
23h 04m 14s
True Declination
0° 00' 00"
Sunlit
Object was in daylight at epoch
Visualization orbit readout
Latitude
Unknown
Longitude
Unknown
Altitude
Unknown
Speed
Unknown
Apparent Right ascension
Unknown
Apparent Declination
Unknown
Sunlit
N/A
Visualization observer readout
Local Sidereal Time
20:14:03
Azimuth
Unknown
Elevation
Unknown
Doppler factor
Unknown
Orbital elements
Apogee altitude
1,272.966 km
Perigee altitude
811.151 km
Semi-major axis
7,420.196 km
Eccentricity
0.03112
Inclination
66.9878°
RAAN
346.0603°
Arg. of periapsis
99.9032°
True anomaly
260.2031°
Mean anomaly
263.7305°
Eccentric anomaly
261.96503°
Mean motion
3.39563 °/min
Orbital period
106.02 mins
BSTAR
0.0023103
Loading maneuver chart data...
Computing Atmospheric mass density...
Loading historical data...
Loading historical data...
Loading historical data...
Loading historical data...
Loading historical data...
Loading historical data...
Loading historical data...

Documentation

Showing up to 5 results
|